Вернуться в каталог

DELTA 1 DEB

АктивенLEO
NORAD 7068·DEBRIS·🇺🇸 United States

Запущен Nov 6, 1973 с Vandenberg Space Force Base

Loading…

Ближайшие Пролёты (ближайшие 24 часа)

TLE

СвежийSource: Space-Track

Эпоха: Sep 13, 2026, 16:48 UTC

1 07068U 73086BL  26256.70052574  .00000007  00000-0  23572-3 0  9995
2 07068 102.3941 248.1012 0215211 353.7425  57.3208 12.81709810470072

Отслеживайте DELTA 1 DEB в реальном времени с AllMySat

Download on the App Store